カタログに戻る

STARLINK-36568

運用中通信SSO
NORAD 68017·PAYLOAD·🇺🇸 United States

打ち上げ Mar 1, 2026 から Vandenberg Space Force Base

Loading…

次のパス (今後24時間)

TLE

最新Source: CelesTrak SupGP

元期: Sep 15, 2026, 03:42 UTC

1 68017C 26040C   26258.15465278  .00066424  00000+0  20623-2 0  2589
2 68017  97.2856 205.5087 0001720  98.7310 299.8458 15.33399995    18

AllMySatでSTARLINK-36568をリアルタイム追跡

Download on the App Store